Miscellaneous Local Product
Issued by NWS North Platte, NE

Home | Current Version | Previous Version | Text Only | Print | Product List | Glossary On
Versions: 1 2 3 4 5 6 7 8 9 10 11 12 13 14 15 16 17 18 19 20 21 22 23 24 25 26 27 28 29 30 31 32 33 34 35 36 37 38 39 40 41 42 43 44 45 46 47 48 49 50
399
AXUS43 KLBF 200010
MISLBF


WESTERN AND NORTH CENTRAL NEBRASKA HOURLY WEATHER ROUNDUP
NATIONAL WEATHER SERVICE NORTH PLATTE NE
700 PM CDT THU APR 19 2018

NOTE: "FAIR" INDICATES FEW OR NO CLOUDS BELOW 12,000 FEET WITH NO
SIGNIFICANT WEATHER AND/OR OBSTRUCTIONS TO VISIBILITY.

NOTE: STATIONS NOT REPORTING VARIABLES SUCH AS SKY/WEATHER OR
PRESSURE ARE PROVIDED BY RAWS AND APRS NETWORKS AND ARE NOT UNDER
NATIONAL WEATHER SERVICE QUALITY CONTROL.

...OBSERVATIONS IN AND NEAR THE EASTERN PANHANDLE OF NEBRASKA...

CITY           SKY/WX    TMP DP  RH WIND       PRES   REMARKS
PINE RIDGE     PTSUNNY   58  29  33 SE16G25   30.17S
GORDON         FAIR      56  27  32 SE18      30.18F
CHADRON        CLOUDY    58  30  34 SE18G28   30.14R
ALLIANCE       PTSUNNY   55  30  38 SE25      30.14F
SIDNEY         PTSUNNY   58  27  30 SE25G36   30.13F
$$

...OBSERVATIONS IN NORTHERN NEBRASKA AND FAR SOUTHERN SOUTH DAKOTA...

CITY           SKY/WX    TMP DP  RH WIND       PRES   REMARKS
WINNER         FAIR      43  30  60 E14       30.31F
VALENTINE      MOSUNNY   55  27  34 SE21G28   30.27S
AINSWORTH      MOSUNNY   52  26  36 SE14      30.29S
O`NEILL        MOSUNNY   50  28  41 E13       30.35F
THEDFORD       MOSUNNY   54  29  38 SE16G22   30.27S
BROKEN BOW     MOSUNNY   53  26  35 SE14      30.29S
ORD            MOSUNNY   53  21  28 SE14      30.31F
ALBION         MOSUNNY   55  24  29 SE10      30.34F
VALENTINE NWR    N/A     53  26  35 SE13G20     N/A
HALSEY           N/A     55  25  31 SE10G18     N/A
BUTTE            N/A     44  30  59 E10         N/A
CHAMBERS         N/A     54  27  35 E7          N/A
EWING            N/A     51  31  45 E9          N/A
$$

...OBSERVATIONS IN SOUTHWEST NEBRASKA AND FAR NORTHEAST COLORADO...

CITY           SKY/WX    TMP DP  RH WIND       PRES   REMARKS
WRAY           FAIR      61  25  25 SE25      30.15F
HOLYOKE        FAIR      61  28  29 SE24G32   30.16S
IMPERIAL       MOSUNNY   58  27  30 E25G33    30.19F
OGALLALA       FAIR      58  26  29 SE17G26   30.20S
NORTH PLATTE   SUNNY     56  29  35 S15G25    30.25F
MCCOOK         SUNNY     57  26  30 SE15      30.26S
LEXINGTON      MOSUNNY   56  26  31 SE13      30.30R
STAPLETON        N/A     55  30  38 CALM        N/A
GOTHENBURG       N/A     55  25  31 SE13        N/A
CALLAWAY         N/A     56  31  39 SE17        N/A
$$

...OBSERVATIONS IN CENTRAL LINCOLN COUNTY AREA...

CITY           SKY/WX    TMP DP  RH WIND       PRES   REMARKS
N.P. AIRPORT   SUNNY     56  29  35 S15G25    30.25F
N.P. DOWNTOWN    N/A     57  30  35 S3          N/A
N.P. SOUTHEAST   N/A     56  29  35 SE9G16      N/A
N.P. HILLCREST   N/A     55  31  39 SE14        N/A
$$

...OBSERVATIONS ACROSS THE ROCKIES AND WESTERN HIGH PLAINS...

CITY           SKY/WX    TMP DP  RH WIND       PRES   REMARKS
RAPID CITY     PTSUNNY   54  33  45 E22       30.16S
SCOTTSBLUFF    PTSUNNY   60  29  30 SE24G32   30.09S
CHEYENNE       CLOUDY    55  20  25 SE29G40   30.03F
DENVER         CLOUDY    65  16  15 SE32G44   29.98S
BERTHOUD PASS  FAIR      27  14  59 S13G25    30.19R WCI  16
MONARCH PASS   CLOUDY    32  12  43 E17       30.28S WCI  21
ASPEN          CLOUDY    62   8  12 S13G18    29.88F
STEAMBOAT      FAIR      60  13  15 E8        29.86F
LARAMIE        PTSUNNY   53  17  24 SE30G41   29.98F
CASPER         PTSUNNY   63  20  19 E17G23    29.92F
$$

...OBSERVATIONS ACROSS THE NORTHERN PLAINS...

CITY           SKY/WX    TMP DP  RH WIND       PRES   REMARKS
BISMARCK       SUNNY     53  33  46 E17       30.32S
FARGO          FAIR      53  34  48 N9        30.38S
PIERRE         PTSUNNY   49  29  46 SE21      30.31S
SIOUX FALLS    PTSUNNY   41  25  53 E10       30.41F
$$

...OBSERVATIONS ACROSS THE CENTRAL AND SOUTHERN PLAINS...

CITY           SKY/WX    TMP DP  RH WIND       PRES   REMARKS
OMAHA          MOSUNNY   58  27  30 E7        30.37F
GRAND ISLAND   SUNNY     56  26  31 E12       30.33F
KANSAS CITY    MOSUNNY   56  28  34 E12       30.36S
WICHITA        MOSUNNY   58  28  32 E12       30.31F
DODGE CITY     SUNNY     62  26  25 SE15G24   30.25F
OKLAHOMA CITY  MOSUNNY   63  30  28 E8        30.27F
DALLAS         MOSUNNY   67  31  26 N13       30.24F
AMARILLO       SUNNY     64  21  19 SE20G29   30.21F
$$




USA.gov is the U.S. government's official web portal to all federal, state and local government web resources and services.